Date String (YYYY-MM-DD hh:mm:ss) UTC,Instrument flags,Ambient pressure (hPa),Sample flow (lpm),Bypass flow (lpm),Sample temperature (°C),Ambient temperature (°C),ASC tube jacket temperature (°C),LED temperature (°C),Box temperature (°C),Sample RH (%),Span deviation,Mass concentration (μg/m³),Mass concentration (μg/m³),Mass concentration (μg/m³)
DateTimeUTC,F1_M11,P_M11,Q1_M11,Q2_M11,T1_M11,T2_M11,T3_M11,T4_M11,T5_M11,U1_M11,ZSPAN_M11,X0_M11,X2_M11,X1_M11
2022-01-23 01:00:00,,0830.6,5.00,0.00,24.9,24.2,00.0,34.0,26.7,11.3,0000.0,0007.58,0004.67,0004.45
2022-01-23 01:01:00,,0830.6,5.01,0.00,24.9,24.2,00.0,34.0,26.7,11.2,0000.0,0007.16,0004.70,0004.47
2022-01-23 01:02:00,,0830.7,4.99,0.00,24.9,24.2,00.0,34.0,26.7,11.2,0000.0,0007.62,0004.71,0004.49
2022-01-23 01:03:00,,0830.7,4.99,0.00,24.9,24.1,00.0,34.0,26.7,11.2,0000.0,0007.72,0004.72,0004.52
2022-01-23 01:04:00,,0830.7,5.00,0.00,24.9,24.1,00.0,34.0,26.6,11.3,0000.0,0007.68,0004.72,0004.52
2022-01-23 01:05:00,,0830.7,5.00,0.00,24.9,24.1,00.0,34.0,26.6,11.3,0000.0,0007.26,0004.71,0004.52
2022-01-23 01:06:00,,0830.7,5.01,0.00,24.9,24.1,00.0,34.0,26.6,11.4,0000.0,0007.60,0004.70,0004.50
2022-01-23 01:07:00,,0830.7,5.00,0.00,24.9,24.1,00.0,33.9,26.6,11.4,0000.0,0007.67,0004.70,0004.49
2022-01-23 01:08:00,,0830.7,5.00,0.00,24.9,24.1,00.0,33.9,26.6,11.4,0000.0,0007.65,0004.70,0004.49
2022-01-23 01:09:00,,0830.7,4.99,0.00,24.8,24.1,00.0,33.9,26.6,11.5,0000.0,0007.66,0004.69,0004.48
2022-01-23 01:10:00,,0830.7,5.01,0.00,24.8,24.1,00.0,33.9,26.6,11.5,0000.0,0007.71,0004.68,0004.46
2022-01-23 01:11:00,,0830.7,4.99,0.00,24.8,24.0,00.0,33.9,26.6,11.5,0000.0,0007.66,0004.64,0004.44
2022-01-23 01:12:00,,0830.7,4.99,0.00,24.8,24.0,00.0,33.9,26.6,11.5,0000.0,0007.61,0004.61,0004.42
2022-01-23 01:13:00,,0830.7,5.01,0.00,24.8,24.0,00.0,33.9,26.5,11.5,0000.0,0007.46,0004.59,0004.39
2022-01-23 01:14:00,,0830.8,5.02,0.00,24.8,24.0,00.0,33.9,26.5,11.5,0000.0,0007.52,0004.56,0004.35
2022-01-23 01:15:00,,0830.8,5.00,0.00,24.7,24.0,00.0,33.9,26.5,11.5,0000.0,0007.54,0004.53,0004.32
2022-01-23 01:16:00,,0830.8,4.99,0.00,24.7,24.0,00.0,33.8,26.5,11.6,0000.0,0007.54,0004.50,0004.28
2022-01-23 01:17:00,,0830.8,5.01,0.00,24.7,24.0,00.0,33.8,26.5,11.5,0000.0,0007.07,0004.49,0004.26
2022-01-23 01:18:00,,0830.8,5.01,0.00,24.7,24.0,00.0,33.8,26.4,11.5,0000.0,0006.90,0004.46,0004.25
2022-01-23 01:19:00,,0830.8,5.00,0.00,24.7,23.9,00.0,33.8,26.4,11.5,0000.0,0006.99,0004.46,0004.25
2022-01-23 01:20:00,,0830.8,4.99,0.00,24.7,23.9,00.0,33.8,26.4,11.5,0000.0,0007.01,0004.46,0004.25
2022-01-23 01:21:00,,0830.9,4.99,0.00,24.7,23.9,00.0,33.8,26.5,11.4,0000.0,0006.97,0004.47,0004.26
2022-01-23 01:22:00,,0830.9,5.02,0.00,24.7,23.9,00.0,33.8,26.4,11.4,0000.0,0007.14,0004.50,0004.27
2022-01-23 01:23:00,,0830.9,5.00,0.00,24.6,23.9,00.0,33.7,26.4,11.4,0000.0,0007.22,0004.52,0004.27
2022-01-23 01:24:00,,0830.9,4.99,0.00,24.6,23.9,00.0,33.7,26.4,11.4,0000.0,0006.95,0004.52,0004.27
2022-01-23 01:25:00,,0830.9,5.00,0.00,24.6,23.9,00.0,33.7,26.4,11.4,0000.0,0006.47,0004.52,0004.27
2022-01-23 01:26:00,,0830.9,4.99,0.00,24.6,23.8,00.0,33.7,26.3,11.4,0000.0,0006.49,0004.52,0004.27
2022-01-23 01:27:00,,0830.9,5.01,0.00,24.6,23.8,00.0,33.7,26.3,11.4,0000.0,0006.49,0004.53,0004.29
2022-01-23 01:28:00,,0830.9,4.99,0.00,24.6,23.8,00.0,33.7,26.3,11.4,0000.0,0006.41,0004.53,0004.28
2022-01-23 01:29:00,,0830.9,5.00,0.00,24.6,23.8,00.0,33.7,26.3,11.4,0000.0,0006.41,0004.53,0004.27
2022-01-23 01:30:00,,0831.0,5.00,0.00,24.6,23.8,00.0,33.7,26.3,11.4,0000.0,0006.36,0004.52,0004.25
2022-01-23 01:31:00,,0831.0,5.02,0.00,24.5,23.8,00.0,33.6,26.3,11.4,0000.0,0006.12,0004.47,0004.23
2022-01-23 01:32:00,,0831.0,4.99,0.00,24.5,23.7,00.0,33.6,26.3,11.4,0000.0,0005.94,0004.43,0004.22
2022-01-23 01:33:00,,0831.0,5.00,0.00,24.5,23.7,00.0,33.6,26.3,11.4,0000.0,0005.84,0004.40,0004.20
2022-01-23 01:34:00,,0831.0,5.00,0.00,24.5,23.7,00.0,33.6,26.3,11.4,0000.0,0005.75,0004.39,0004.20
2022-01-23 01:35:00,,0831.0,5.00,0.00,24.5,23.7,00.0,33.6,26.3,11.3,0000.0,0005.81,0004.40,0004.21
2022-01-23 01:36:00,,0831.0,5.00,0.00,24.5,23.7,00.0,33.6,26.2,11.4,0000.0,0005.78,0004.40,0004.21
2022-01-23 01:37:00,,0831.0,5.02,0.00,24.5,23.7,00.0,33.6,26.2,11.4,0000.0,0005.84,0004.41,0004.22
2022-01-23 01:38:00,,0831.0,5.00,0.00,24.5,23.7,00.0,33.6,26.2,11.4,0000.0,0006.07,0004.44,0004.22
2022-01-23 01:39:00,,0831.0,5.00,0.00,24.4,23.7,00.0,33.6,26.2,11.4,0000.0,0005.98,0004.43,0004.23
2022-01-23 01:40:00,,0831.0,5.00,0.00,24.4,23.7,00.0,33.5,26.2,11.5,0000.0,0006.69,0004.44,0004.23
2022-01-23 01:41:00,,0831.1,5.00,0.00,24.4,23.7,00.0,33.5,26.2,11.5,0000.0,0006.81,0004.43,0004.25
2022-01-23 01:42:00,,0831.1,5.00,0.00,24.4,23.6,00.0,33.5,26.1,11.5,0000.0,0006.83,0004.44,0004.25
2022-01-23 01:43:00,,0831.1,5.00,0.00,24.4,23.6,00.0,33.5,26.1,11.5,0000.0,0006.86,0004.43,0004.24
2022-01-23 01:44:00,,0831.1,4.99,0.00,24.4,23.6,00.0,33.5,26.1,11.4,0000.0,0006.77,0004.42,0004.24
2022-01-23 01:45:00,,0831.2,5.01,0.00,24.4,23.6,00.0,33.5,26.1,11.4,0000.0,0006.74,0004.40,0004.22
2022-01-23 01:46:00,,0831.2,5.00,0.00,24.3,23.6,00.0,33.4,26.1,11.4,0000.0,0006.86,0004.37,0004.20
2022-01-23 01:47:00,,0831.2,5.00,0.00,24.3,23.6,00.0,33.4,26.1,11.4,0000.0,0007.01,0004.36,0004.18
2022-01-23 01:48:00,,0831.2,5.01,0.00,24.3,23.5,00.0,33.4,26.0,11.4,0000.0,0007.17,0004.34,0004.16
2022-01-23 01:49:00,,0831.2,4.99,0.00,24.3,23.5,00.0,33.4,26.0,11.4,0000.0,0007.04,0004.31,0004.13
2022-01-23 01:50:00,,0831.2,5.01,0.00,24.3,23.5,00.0,33.4,26.0,11.4,0000.0,0006.99,0004.28,0004.10
2022-01-23 01:51:00,,0831.2,5.01,0.00,24.2,23.5,00.0,33.4,26.0,11.4,0000.0,0006.20,0004.24,0004.07
2022-01-23 01:52:00,,0831.2,5.00,0.00,24.2,23.4,00.0,33.4,26.0,11.4,0000.0,0006.08,0004.22,0004.04
2022-01-23 01:53:00,,0831.1,5.00,0.00,24.2,23.4,00.0,33.3,25.9,11.3,0000.0,0006.09,0004.21,0004.01
2022-01-23 01:54:00,,0831.1,5.00,0.00,24.2,23.4,00.0,33.3,25.9,11.3,0000.0,0006.10,0004.20,0003.99
2022-01-23 01:55:00,,0831.1,5.01,0.00,24.2,23.4,00.0,33.3,25.9,11.2,0000.0,0006.11,0004.18,0003.97
2022-01-23 01:56:00,,0831.2,5.00,0.00,24.2,23.4,00.0,33.3,25.9,11.2,0000.0,0006.33,0004.18,0003.95
2022-01-23 01:57:00,,0831.1,4.99,0.00,24.1,23.4,00.0,33.3,25.9,11.2,0000.0,0006.21,0004.16,0003.93
2022-01-23 01:58:00,,0831.2,4.99,0.00,24.1,23.4,00.0,33.3,25.9,11.3,0000.0,0005.96,0004.13,0003.91
2022-01-23 01:59:00,,0831.2,5.01,0.00,24.1,23.3,00.0,33.3,25.9,11.2,0000.0,0005.67,0004.11,0003.90
